FW3814 Weather Reports


time (UTC)temp
F
wind
direction
speed
knots
gust
knots
rain 1hr
in
rain 24hr
in
rain mn
in
humidity
%
barometer
mb
20260904075504 80 0 0.0 0.0 0.00 0.00 0.00 50 1019.6
20260904075004 80 0 0.0 0.0 0.00 0.00 0.00 51 1019.5
20260904074504 79 0 0.0 0.0 0.00 0.00 0.00 51 1019.6
20260904074025 79 0 0.0 0.0 0.00 0.00 0.00 52 1019.6
20260904073504 78 0 0.0 0.0 0.00 0.00 0.00 52 1019.5
20260904073004 78 0 0.0 0.0 0.00 0.00 0.00 52 1019.6
20260904072525 78 0 0.0 0.0 0.00 0.00 0.00 52 1019.5
20260904072004 78 0 0.0 0.0 0.00 0.00 0.00 52 1019.4
20260904071504 77 360 0.0 2.6 0.00 0.00 0.00 52 1019.5
20260904071004 77 360 1.7 2.6 0.00 0.00 0.00 52 1019.4
20260904070504 76 5 1.7 2.6 0.00 0.00 0.00 52 1019.2
20260904070004 76 26 0.9 2.6 0.00 0.00 0.00 52 1019.2
20260904065504 76 49 0.0 1.7 0.00 0.00 0.00 52 1019.2
20260904065004 75 46 0.0 1.7 0.00 0.00 0.00 53 1019.3
20260904064504 75 38 0.0 1.7 0.00 0.00 0.00 54 1019.3
20260904064004 74 0 0.0 0.0 0.00 0.00 0.00 54 1019.2
20260904063525 74 0 0.0 0.0 0.00 0.00 0.00 54 1019.4
20260904063004 74 0 0.0 0.0 0.00 0.00 0.00 55 1019.1
20260904062525 73 6 0.0 1.7 0.00 0.00 0.00 55 1019.0
20260904062004 73 5 0.9 1.7 0.00 0.00 0.00 55 1019.1
20260904061504 73 82 0.0 2.6 0.00 0.00 0.00 56 1019.0
20260904061004 73 112 0.0 2.6 0.00 0.00 0.00 56 1019.0
20260904060504 72 0 0.0 0.0 0.00 0.00 0.00 60 1019.0
20260904060004 72 41 0.0 1.7 0.00 0.00 0.00 60 1019.0
20260904055504 72 49 0.0 1.7 0.00 0.00 0.00 60 1018.9
20260904055004 72 67 0.0 1.7 0.00 0.00 0.00 60 1018.8
20260904054525 72 5 0.9 2.6 0.00 0.00 0.00 60 1018.9
20260904054004 72 13 1.7 2.6 0.00 0.00 0.00 60 1019.0
20260904053504 71 18 1.7 5.2 0.00 0.00 0.00 60 1018.9
20260904053004 71 34 1.7 5.2 0.00 0.00 0.00 61 1018.8
20260904052504 70 27 2.6 5.2 0.00 0.00 0.00 61 1018.8
20260904052004 70 16 2.6 3.5 0.00 0.00 0.00 61 1018.9
20260904051525 70 17 2.6 3.5 0.00 0.00 0.00 61 1018.6
20260904051025 69 18 3.5 3.5 0.00 0.00 0.00 62 1018.8
20260904050504 69 21 1.7 3.5 0.00 0.00 0.00 61 1018.7
20260904050004 69 26 0.9 3.5 0.00 0.00 0.00 61 1018.6
20260904045504 69 22 0.9 1.7 0.00 0.00 0.00 61 1018.4
20260904045004 69 22 1.7 3.5 0.00 0.00 0.00 62 1018.6
20260904044504 69 22 0.9 3.5 0.00 0.00 0.00 62 1018.3
20260904044005 68 22 0.0 2.6 0.00 0.00 0.00 62 1018.4
20260904043504 68 22 0.0 0.9 0.00 0.00 0.00 63 1018.4
20260904043004 68 333 0.0 1.7 0.00 0.00 0.00 64 1018.4
20260904042504 68 333 0.0 1.7 0.00 0.00 0.00 64 1018.5
20260904042025 68 360 0.9 3.5 0.00 0.00 0.00 63 1018.4
20260904041504 68 5 2.6 3.5 0.00 0.00 0.00 63 1018.5
20260904041004 68 4 3.5 3.5 0.00 0.00 0.00 62 1018.5
20260904040504 69 360 2.6 3.5 0.00 0.00 0.00 61 1018.5
20260904040004 69 4 2.6 3.5 0.00 0.00 0.00 61 1018.5
20260904035504 69 9 1.7 3.5 0.00 0.00 0.00 61 1018.4
20260904035004 69 12 0.9 3.5 0.00 0.00 0.00 61 1018.4
20260904034504 69 13 1.7 3.5 0.00 0.00 0.00 61 1018.4
20260904034004 69 17 1.7 3.5 0.00 0.00 0.00 61 1018.7
20260904033504 69 19 1.7 3.5 0.00 0.00 0.00 61 1018.7
20260904033004 69 17 0.9 3.5 0.00 0.00 0.00 61 1018.7
20260904032504 69 17 0.9 3.5 0.00 0.00 0.00 61 1018.6
20260904032004 69 360 0.0 0.9 0.00 0.00 0.00 61 1018.7
20260904031504 69 7 0.0 2.6 0.00 0.00 0.00 62 1018.6
20260904031004 69 7 0.0 2.6 0.00 0.00 0.00 62 1018.7
20260904030504 69 0 0.0 0.0 0.00 0.00 0.00 62 1018.7
20260904030004 69 0 0.0 0.0 0.00 0.00 0.00 61 1018.6
20260904025504 69 0 0.0 0.0 0.00 0.00 0.00 60 1018.7
20260904025004 70 0 0.0 0.0 0.00 0.00 0.00 60 1018.6
20260904024525 70 0 0.0 0.0 0.00 0.00 0.00 60 1018.6
20260904024025 70 0 0.0 0.0 0.00 0.00 0.00 60 1018.6
20260904023504 71 36 1.7 4.3 0.00 0.00 0.00 60 1018.6
20260904023004 71 27 2.6 4.3 0.00 0.00 0.00 60 1018.7
20260904022504 70 17 2.6 3.5 0.00 0.00 0.00 61 1018.6
20260904022004 70 11 1.7 3.5 0.00 0.00 0.00 61 1018.6
20260904021504 70 9 1.7 3.5 0.00 0.00 0.00 62 1018.6
20260904021004 70 13 1.7 3.5 0.00 0.00 0.00 62 1018.5
20260904020504 69 351 1.7 2.6 0.00 0.00 0.00 63 1018.6
20260904020004 69 338 1.7 2.6 0.00 0.00 0.00 63 1018.5
20260904015504 69 360 0.0 2.6 0.00 0.00 0.00 63 1018.5
20260904015004 70 360 0.0 2.6 0.00 0.00 0.00 62 1018.4
20260904014504 70 357 0.9 2.6 0.00 0.00 0.00 62 1018.3
20260904014025 71 16 0.9 3.5 0.00 0.00 0.00 61 1018.3
20260904013504 70 22 0.9 3.5 0.00 0.00 0.00 61 1018.3
20260904013004 70 12 0.0 1.7 0.00 0.00 0.00 62 1018.3
20260904012504 71 5 1.7 4.3 0.00 0.00 0.00 61 1018.4
20260904012004 71 5 1.7 4.3 0.00 0.00 0.00 60 1018.3
20260904011504 71 360 0.0 1.7 0.00 0.00 0.00 60 1018.4
20260904011004 71 0 0.0 0.0 0.00 0.00 0.00 60 1018.3
20260904010504 71 0 0.0 0.0 0.00 0.00 0.00 60 1018.5
20260904010004 71 0 0.0 0.0 0.00 0.00 0.00 60 1018.5
20260904005504 71 0 0.0 0.0 0.00 0.00 0.00 60 1018.4
20260904005004 72 0 0.0 0.0 0.00 0.00 0.00 60 1018.3
20260904004504 72 9 0.0 2.6 0.00 0.00 0.00 60 1018.4
20260904004004 72 19 1.7 3.5 0.00 0.00 0.00 60 1018.3
20260904003504 72 19 1.7 3.5 0.00 0.00 0.00 60 1018.4
20260904003004 72 12 1.7 3.5 0.00 0.00 0.00 61 1018.6
20260904002504 72 8 1.7 3.5 0.00 0.00 0.00 61 1018.5
20260904002025 71 7 1.7 3.5 0.00 0.00 0.00 61 1018.6
20260904001504 72 8 0.9 3.5 0.00 0.00 0.00 61 1018.8
20260904001025 72 20 1.7 3.5 0.00 0.00 0.00 61 1018.7
20260904000504 72 19 2.6 3.5 0.00 0.00 0.00 61 1018.5
20260904000004 72 11 2.6 3.5 0.00 0.00 0.00 61 1018.8
20260903235504 72 5 2.6 3.5 0.00 0.00 0.00 60 1018.7
20260903235025 72 5 0.9 3.5 0.00 0.00 0.00 56 1018.8
20260903234504 73 5 1.7 3.5 0.00 0.00 0.00 55 1018.8
20260903234004 73 7 2.6 3.5 0.00 0.00 0.00 54 1018.9
20260903233503 73 12 3.5 4.3 0.00 0.00 0.00 54 1018.9
20260903233025 73 7 2.6 4.3 0.00 0.00 0.00 54 1018.9
20260903232504 73 353 1.7 3.5 0.00 0.00 0.00 54 1018.8
20260903232004 74 355 1.7 4.3 0.00 0.00 0.00 54 1018.9
20260903231504 74 14 3.5 5.2 0.00 0.00 0.00 54 1018.9
20260903231003 74 20 3.5 4.3 0.00 0.00 0.00 54 1018.8
20260903230503 73 16 3.5 5.2 0.00 0.00 0.00 54 1018.8
20260903230003 73 7 3.5 5.2 0.00 0.00 0.00 54 1018.7
20260903225524 74 3 2.6 3.5 0.00 0.00 0.00 54 1018.7
20260903225003 74 358 1.7 2.6 0.00 0.00 0.00 54 1018.7
20260903224503 74 358 0.9 2.6 0.00 0.00 0.00 54 1018.6
20260903224003 74 19 0.0 1.7 0.00 0.00 0.00 54 1018.8
20260903223503 74 18 0.9 1.7 0.00 0.00 0.00 54 1018.7
20260903223003 74 9 0.9 2.6 0.00 0.00 0.00 54 1018.7
20260903222503 74 9 1.7 3.5 0.00 0.00 0.00 54 1018.8
20260903222003 74 8 1.7 3.5 0.00 0.00 0.00 54 1018.7
20260903221503 74 1 0.9 1.7 0.00 0.00 0.00 54 1018.6
20260903221003 74 9 0.0 0.9 0.00 0.00 0.00 54 1018.8
20260903220503 75 358 0.9 2.6 0.00 0.00 0.00 53 1018.9
20260903220004 75 2 2.6 3.5 0.00 0.00 0.00 53 1018.9
20260903215503 75 6 3.5 5.2 0.00 0.00 0.00 53 1018.8
20260903215024 75 7 2.6 5.2 0.00 0.00 0.00 53 1018.8
20260903214503 75 7 0.0 3.5 0.00 0.00 0.00 53 1018.7
20260903214003 75 0 0.0 0.0 0.00 0.00 0.00 53 1018.8
20260903213503 75 0 0.0 0.0 0.00 0.00 0.00 53 1018.7
20260903213024 75 5 0.9 3.5 0.00 0.00 0.00 53 1018.7
20260903212503 75 2 0.9 3.5 0.00 0.00 0.00 53 1018.6
20260903212003 75 3 1.7 3.5 0.00 0.00 0.00 53 1018.7
20260903211503 75 11 3.5 3.5 0.00 0.00 0.00 53 1018.7
20260903211003 75 15 3.5 4.3 0.00 0.00 0.00 53 1018.8
20260903210524 75 13 1.7 4.3 0.00 0.00 0.00 52 1018.7
20260903210003 75 9 0.9 3.5 0.00 0.00 0.00 52 1018.8
20260903205503 76 0 0.0 0.0 0.00 0.00 0.00 52 1018.7
20260903205003 76 0 0.0 0.0 0.00 0.00 0.00 52 1018.7
20260903204503 76 0 0.0 0.0 0.00 0.00 0.00 52 1018.7
20260903204003 76 0 0.0 0.0 0.00 0.00 0.00 52 1018.6
20260903203503 76 0 0.0 0.0 0.00 0.00 0.00 52 1018.6
20260903203004 76 0 0.0 0.0 0.00 0.00 0.00 52 1018.7
20260903202524 76 0 0.0 0.0 0.00 0.00 0.00 51 1018.5
20260903202003 76 0 0.0 0.0 0.00 0.00 0.00 51 1018.6
20260903201503 76 0 0.0 0.0 0.00 0.00 0.00 51 1018.6
20260903201024 76 0 0.0 0.0 0.00 0.00 0.00 51 1018.5
20260903200503 76 0 0.0 0.0 0.00 0.00 0.00 51 1018.5
20260903200003 76 14 0.9 1.7 0.00 0.00 0.00 51 1018.5
20260903195503 76 14 0.9 1.7 0.00 0.00 0.00 52 1018.4
20260903195003 76 0 0.0 0.0 0.00 0.00 0.00 52 1018.4
20260903194503 77 0 0.0 0.0 0.00 0.00 0.00 51 1018.6
20260903194024 77 0 0.0 0.0 0.00 0.00 0.00 51 1018.5
20260903193503 78 0 0.0 0.0 0.00 0.00 0.00 50 1018.4
20260903193024 78 0 0.0 0.0 0.00 0.00 0.00 49 1018.5
20260903192503 78 0 0.0 0.0 0.00 0.00 0.00 48 1018.4
20260903192003 78 0 0.0 0.0 0.00 0.00 0.00 48 1018.5
20260903191503 78 0 0.0 0.0 0.00 0.00 0.00 48 1018.4
20260903191003 78 0 0.0 0.0 0.00 0.00 0.00 48 1018.4
20260903190524 78 0 0.0 0.0 0.00 0.00 0.00 48 1018.1
20260903190003 78 0 0.0 0.0 0.00 0.00 0.00 47 1018.0
20260903185524 78 0 0.0 0.0 0.00 0.00 0.00 47 1018.0
20260903185024 78 0 0.0 0.0 0.00 0.00 0.00 46 1018.0
20260903184503 79 0 0.0 0.0 0.00 0.00 0.00 46 1017.9
20260903184004 79 0 0.0 0.0 0.00 0.00 0.00 46 1018.0
20260903183524 79 0 0.0 0.0 0.00 0.00 0.00 46 1017.8
20260903183003 79 0 0.0 0.0 0.00 0.00 0.00 46 1017.9
20260903182503 79 0 0.0 0.0 0.00 0.00 0.00 46 1017.7
20260903182003 79 0 0.0 0.0 0.00 0.00 0.00 45 1017.7
20260903181503 80 0 0.0 0.0 0.00 0.00 0.00 45 1017.7
20260903181003 80 0 0.0 0.0 0.00 0.00 0.00 45 1017.6
20260903180524 80 0 0.0 0.0 0.00 0.00 0.00 44 1017.7
20260903180003 80 0 0.0 0.0 0.00 0.00 0.00 44 1017.6
20260903175503 81 0 0.0 0.0 0.00 0.00 0.00 44 1017.7
20260903175003 81 0 0.0 0.0 0.00 0.00 0.00 44 1017.4
20260903174524 81 0 0.0 0.0 0.00 0.00 0.00 43 1017.6
20260903174003 82 0 0.0 0.0 0.00 0.00 0.00 40 1017.4
20260903173503 82 0 0.0 0.0 0.00 0.00 0.00 40 1017.5
20260903173003 83 0 0.0 0.0 0.00 0.00 0.00 40 1017.5
20260903172503 83 0 0.0 0.0 0.00 0.00 0.00 40 1017.4
20260903172024 83 0 0.0 0.0 0.00 0.00 0.00 39 1017.3
20260903171524 84 0 0.0 0.0 0.00 0.00 0.00 39 1017.5
20260903171003 84 0 0.0 0.0 0.00 0.00 0.00 40 1017.5
20260903170503 85 0 0.0 0.0 0.00 0.00 0.00 38 1017.5
20260903170003 85 0 0.0 0.0 0.00 0.00 0.00 38 1017.5
20260903165503 85 0 0.0 0.0 0.00 0.00 0.00 38 1017.6
20260903165003 86 0 0.0 0.0 0.00 0.00 0.00 38 1017.4
20260903164503 86 0 0.0 0.0 0.00 0.00 0.00 38 1017.6
20260903164024 87 0 0.0 0.0 0.00 0.00 0.00 38 1017.5
20260903163503 87 0 0.0 0.0 0.00 0.00 0.00 37 1017.4
20260903163003 88 18 0.0 2.6 0.00 0.00 0.00 37 1017.4
20260903162503 88 18 0.0 2.6 0.00 0.00 0.00 36 1017.4
20260903162024 88 0 0.0 0.0 0.00 0.00 0.00 36 1017.4
20260903161503 88 315 0.0 0.9 0.00 0.00 0.00 36 1017.4
20260903161024 88 315 0.0 0.9 0.00 0.00 0.00 36 1017.4
20260903160503 88 247 0.0 0.9 0.00 0.00 0.00 36 1017.4
20260903160024 88 266 0.0 0.9 0.00 0.00 0.00 36 1017.5
20260903155503 89 341 0.0 0.9 0.00 0.00 0.00 36 1017.3
20260903155003 89 312 0.0 0.9 0.00 0.00 0.00 36 1017.4
20260903154503 89 291 0.0 0.9 0.00 0.00 0.00 36 1017.5
20260903154003 89 254 0.0 1.7 0.00 0.00 0.00 36 1017.5
20260903153503 89 275 0.0 1.7 0.00 0.00 0.00 35 1017.4
20260903153003 89 315 0.0 0.9 0.00 0.00 0.00 35 1017.6
20260903152503 89 0 0.0 0.0 0.00 0.00 0.00 35 1017.4
20260903152024 89 0 0.0 0.0 0.00 0.00 0.00 35 1017.6
20260903151503 89 0 0.0 0.0 0.00 0.00 0.00 34 1017.6
20260903151003 89 0 0.0 0.0 0.00 0.00 0.00 35 1017.6
20260903150503 89 315 0.0 0.9 0.00 0.00 0.00 35 1017.7
20260903150003 89 315 0.0 1.7 0.00 0.00 0.00 35 1017.8
20260903145524 89 318 0.9 3.5 0.00 0.00 0.00 35 1017.7
20260903145003 89 322 1.7 3.5 0.00 0.00 0.00 34 1017.9
20260903144503 89 293 1.7 7.0 0.00 0.00 0.00 34 1017.7
20260903144003 89 301 2.6 7.0 0.00 0.00 0.00 34 1017.8
20260903143524 89 310 2.6 7.0 0.00 0.00 0.00 34 1017.9
20260903143003 89 312 1.7 5.2 0.00 0.00 0.00 33 1017.8
20260903142503 89 289 3.5 6.1 0.00 0.00 0.00 32 1017.7
20260903142004 89 273 2.6 6.1 0.00 0.00 0.00 31 1017.9
20260903141503 89 251 1.7 5.2 0.00 0.00 0.00 31 1017.8
20260903141003 89 249 4.3 5.2 0.00 0.00 0.00 31 1018.0
20260903140503 88 252 2.6 5.2 0.00 0.00 0.00 33 1018.1
20260903140024 88 268 0.9 5.2 0.00 0.00 0.00 33 1018.0
20260903135503 88 293 1.7 3.5 0.00 0.00 0.00 33 1018.1
20260903135003 88 308 0.9 3.5 0.00 0.00 0.00 33 1018.3
20260903134503 88 262 0.0 0.9 0.00 0.00 0.00 34 1018.3
20260903134003 87 315 0.0 0.9 0.00 0.00 0.00 34 1018.3
20260903133503 87 315 0.0 0.9 0.00 0.00 0.00 34 1018.1
20260903133003 87 0 0.0 0.0 0.00 0.00 0.00 34 1018.3
20260903132503 87 0 0.0 0.0 0.00 0.00 0.00 32 1018.3
20260903132005 88 0 0.0 0.0 0.00 0.00 0.00 32 1018.4
20260903131505 89 315 0.0 0.9 0.00 0.00 0.00 32 1018.3
20260903131005 89 305 0.0 2.6 0.00 0.00 0.00 33 1018.3
20260903130505 88 304 1.7 3.5 0.00 0.00 0.00 33 1018.4
20260903130005 88 305 1.7 3.5 0.00 0.00 0.00 33 1018.6
20260903125505 88 315 0.9 2.6 0.00 0.00 0.00 33 1018.6
20260903125005 88 315 0.0 3.5 0.00 0.00 0.00 35 1018.8
20260903124505 88 318 0.9 3.5 0.00 0.00 0.00 34 1018.7
20260903124005 88 292 0.9 3.5 0.00 0.00 0.00 35 1018.9
20260903123505 88 287 0.9 3.5 0.00 0.00 0.00 35 1018.8
20260903123005 88 283 0.0 0.9 0.00 0.00 0.00 36 1019.0
20260903122505 87 263 1.7 4.3 0.00 0.00 0.00 36 1018.8
20260903122005 87 271 1.7 4.3 0.00 0.00 0.00 36 1019.0
20260903121505 87 324 0.0 2.6 0.00 0.00 0.00 36 1019.0
20260903121005 87 0 0.0 0.0 0.00 0.00 0.00 36 1018.9
20260903120505 86 2 0.0 1.7 0.00 0.00 0.00 37 1019.0
20260903120005 86 11 0.9 2.6 0.00 0.00 0.00 37 1019.1
20260903115505 87 10 0.9 3.5 0.00 0.00 0.00 37 1019.0
20260903115005 86 360 0.9 3.5 0.00 0.00 0.00 38 1019.0
20260903114505 86 309 0.9 3.5 0.00 0.00 0.00 37 1019.1
20260903114005 86 303 0.9 2.6 0.00 0.00 0.00 37 1019.2
20260903113505 86 8 0.0 0.9 0.00 0.00 0.00 37 1019.1
20260903113005 86 360 0.0 0.9 0.00 0.00 0.00 37 1019.1
20260903112505 86 295 0.0 2.6 0.00 0.00 0.00 37 1019.2
20260903112026 86 278 0.9 2.6 0.00 0.00 0.00 38 1019.3
20260903111526 85 292 1.7 4.3 0.00 0.00 0.00 36 1019.1
20260903111005 86 303 0.9 4.3 0.00 0.00 0.00 36 1019.1
20260903110505 85 0 0.0 0.0 0.00 0.00 0.00 37 1019.2
20260903110005 85 0 0.0 0.0 0.00 0.00 0.00 37 1019.3
20260903105505 85 0 0.0 0.0 0.00 0.00 0.00 37 1019.3
20260903105005 85 0 0.0 0.0 0.00 0.00 0.00 38 1019.3
20260903104505 85 0 0.0 0.0 0.00 0.00 0.00 37 1019.4
20260903104005 85 0 0.0 0.0 0.00 0.00 0.00 38 1019.7
20260903103505 84 353 0.0 1.7 0.00 0.00 0.00 38 1019.5
20260903103005 84 353 0.0 2.6 0.00 0.00 0.00 37 1019.7
20260903102505 84 16 0.9 3.5 0.00 0.00 0.00 38 1019.8
20260903102005 83 17 2.6 4.3 0.00 0.00 0.00 38 1019.6
20260903101505 83 16 1.7 4.3 0.00 0.00 0.00 39 1019.8
20260903101005 83 2 2.6 3.5 0.00 0.00 0.00 40 1019.9
20260903100526 83 356 2.6 3.5 0.00 0.00 0.00 39 1020.0
20260903100005 83 358 1.7 4.3 0.00 0.00 0.00 39 1020.0
20260903095505 83 12 0.9 4.3 0.00 0.00 0.00 40 1020.1
20260903095005 83 306 0.0 1.7 0.00 0.00 0.00 40 1020.1
20260903094526 83 306 0.0 1.7 0.00 0.00 0.00 39 1019.8
20260903094026 83 247 0.0 0.9 0.00 0.00 0.00 40 1019.8
20260903093505 83 0 0.0 0.0 0.00 0.00 0.00 40 1019.9
20260903093005 82 360 0.0 1.7 0.00 0.00 0.00 40 1019.8
20260903092505 82 360 0.0 1.7 0.00 0.00 0.00 41 1019.8
20260903092005 82 0 0.0 0.0 0.00 0.00 0.00 42 1019.9
20260903091505 82 360 0.0 1.7 0.00 0.00 0.00 42 1019.9
20260903091005 82 360 0.0 1.7 0.00 0.00 0.00 43 1020.1
20260903090526 81 0 0.0 0.0 0.00 0.00 0.00 48 1020.1
20260903090026 81 0 0.0 0.0 0.00 0.00 0.00 48 1020.0
20260903085526 81 11 0.0 1.7 0.00 0.00 0.00 49 1019.9
20260903085005 80 13 0.9 1.7 0.00 0.00 0.00 48 1020.0
20260903084505 80 11 0.9 1.7 0.00 0.00 0.00 48 1020.0
20260903084005 80 360 0.0 1.7 0.00 0.00 0.00 49 1020.1
20260903083505 80 360 0.0 0.9 0.00 0.00 0.00 49 1019.8
20260903083005 79 342 0.9 2.6 0.00 0.00 0.00 50 1019.8
20260903082526 79 352 0.9 3.5 0.00 0.00 0.00 50 1019.6
20260903082026 79 1 1.7 3.5 0.00 0.00 0.00 50 1019.9
20260903081505 78 9 2.6 4.3 0.00 0.00 0.00 50 1019.9
20260903081005 78 19 2.6 4.3 0.00 0.00 0.00 50 1019.8
20260903080505 78 16 3.5 5.2 0.00 0.00 0.00 51 1020.0
20260903080026 78 8 3.5 5.2 0.00 0.00 0.00 51 1019.8